Location: Barcelona
(41.3830°N, 2.1830°E)
Time: 21:08:39
(UTC+01:00)

ISS - Pass Details

Date: 29 March 2017
Orbit: 399 x 409 km, 51.6° (Epoch: 24 March)

Event Time Altitude Azimuth Distance (km) Brightness Sun altitude
Rises 21:37:36 0° 247° (WSW) 2,302 0.7 -16.2°
Reaches altitude 10° 21:39:43 10° 253° (WSW) 1,448 -0.3 -16.6°
Maximum altitude 21:42:52 48° 329° (NNW) 531 -3.0 -17.1°
Enters shadow 21:44:54 20° 38° (NE) 1,015 -2.0 -17.5°
